FENGYUN 1C DEB, 30564

Orbit data source: Space-Track

FENGYUN 1C DEB, 30564 is space debris in SSO originally from a launch on Mon, 10 May 1999 UTC launched from the Taiyaun Space Center, China (TSC). Fengyun 1C debris stems from the Chinese weather satellite Fengyun-1C, which was intentionally destroyed by a Chinese anti-satellite missile in 2007. This event dramatically increased the amount of space debris, with thousands of trackable fragments posing hazards to satellites and human spaceflight. The Fengyun 1C debris cloud has become a focal point in discussions about space sustainability and the need for international regulations to prevent the creation of new debris.

Loading next visibility...
Identifier
30564, 1999-025ALE
Orbit
SSO
Country
Flag of CNCN / PRC
Related business
Manufacturer
Unknown
Mission
Spacecraft
Bus & Motor
Unknown
Mass
Unknown
Launch date (UTC)
1999-05-10 (27 years ago)
Launch vehicle
Unknown
Launch site
Taiyaun Space Center, China (TSC)
Object type
Payload
Rocket body
Debris
Shape & HBR
Unknown shape, 0.1 m
Radar Cross Section
Medium (>0.1 m² and <1 m²)

Expand to show TLE details & history
Last TLE update: 22 hours ago

TLE from 22 hours ago
0 FENGYUN 1C DEB
1 30564U 99025ALE 26237.89449372  .00000837  00000-0  44223-3 0  9995
2 30564  98.7914 247.4842 0202260 118.6903 359.2263 14.06368367998953
Epoch: 2026-08-25T21:28Z
TLE epoch observation values (Epoch: 2026-08-25T21:28:04.257Z)
Latitude
60.96602°
Longitude
147.39931°
Altitude
735.539 km
Speed
7.569 km/s
True Right ascension
05h 34m 17s
True Declination
60° 49' 10"
Sunlit
Object was in daylight at epoch
Visualization orbit readout
Latitude
Unknown
Longitude
Unknown
Altitude
Unknown
Speed
Unknown
Apparent Right ascension
Unknown
Apparent Declination
Unknown
Sunlit
N/A
Visualization observer readout
Local Sidereal Time
11:14:09
Azimuth
Unknown
Elevation
Unknown
Doppler factor
Unknown
Orbital elements
Apogee altitude
1,015.586 km
Perigee altitude
722.424 km
Semi-major axis
7,247.142 km
Eccentricity
0.02023
Inclination
98.7914°
RAAN
247.4842°
Arg. of periapsis
118.6903°
True anomaly
359.19419°
Mean anomaly
359.2263°
Eccentric anomaly
359.21033°
Mean motion
3.51798 °/min
Orbital period
102.33 mins
BSTAR
0.00044223
Loading maneuver chart data...
Computing Atmospheric mass density...

Documentation

Showing up to 5 results
|